Location: Unspecified
(52.1971°N, 0.0000°E)
Time: 14:34:58
(UTC+00:00)

ISS - Pass Details

Date: 28 May 2019
Orbit: 407 x 419 km, 51.6° (Epoch: 26 June)

Event Time Altitude Azimuth Distance (km) Brightness Sun altitude
Rises 22:03:12 0° 282° (WNW) 2,361 0.7 -12.2°
Reaches altitude 10° 22:05:23 10° 274° (W) 1,498 -0.5 -12.3°
Maximum altitude 22:08:31 37° 205° (SSW) 662 -3.1 -12.5°
Enters shadow 22:10:04 23° 153° (SSE) 935 -2.6 -12.6°
